User: anonymous   Login
Location: Unspecified
(0.0000°N, 0.0000°E)
Time: 07:48:46
(UTC+02:00)
Language:

YAOGAN 3 - Orbit

View from above orbital plane
View from above orbital plane
View from above satellite
View from above satellite

Ground track
Ground track

The orbit data is extracted from the following two-line orbital elements,

1 32289U 07055A   18112.91260307  .00000118  00000-0  22101-4 0  9992
2 32289  98.0071 119.2493 0001808  73.4020 286.7412 14.80888792564575
Epoch (UTC): 22 April 2018 21:54:08
Eccentricity: 0.0001808
inclination: 98.0071°
perigee height: 625 km
apogee height: 628 km
right ascension of ascending node: 119.2493°
argument of perigee: 73.4020°
revolutions per day: 14.80888792
mean anomaly at epoch: 286.7412°
orbit number at epoch: 56457

The dashed part of the orbit path shows where the satellite is in the earth's shadow,  

DLR